Hourly Data Report for November 25, 2017

SHEARWATER RCS
NOVA SCOTIA

44°37'47.000" N
63°30'48.000" W
24.00 m
8205092
71264
AAW

Download Data

Hourly Data (November 2017)
Hourly Data Report for November 25, 2017
TIME
LST
Temp Definition
°C
Dew Point Definition
°C
Rel Hum Definition
%
Precip. Amount Definition
mm

Wind Dir Definition
10's deg

Wind Spd Definition
km/h
Visibility Definition
km
Stn Press Definition
kPa
Hmdx Definition


Wind Chill Definition


Weather Definition


00:00 2.1 -0.1 85 0.0 29 2   101.38     LegendNANA
01:00 2.9 0.9 86 0.0 7 4   101.31     LegendNANA
02:00 3.9 1.4 84 0.0 5 3   101.28     LegendNANA
03:00 3.4 1.0 85 0.0 7 7   101.26     LegendNANA
04:00 4.4 2.2 86 0.0 9 2   101.23     LegendNANA
05:00 5.6 4.1 90 0.0 18 9   101.19     LegendNANA
06:00 7.7 4.9 83 0.0 19 13   101.14     LegendNANA
07:00 7.8 5.1 84 0.0 19 10   101.12     LegendNANA
08:00 8.1 5.3 83 0.0 20 11   101.14     LegendNANA
09:00 10.2 6.1 76 0.2 19 13   101.11     LegendNANA
10:00 10.5 6.2 75 0.0 18 16   101.08     LegendNANA
11:00 10.9 7.6 80 LegendMM 17 17   101.00     LegendNANA
12:00 11.1 7.9 81 LegendMM 16 17   100.88     LegendNANA
13:00 11.2 8.5 84 LegendMM 16 14   100.81     LegendNANA
14:00 11.9 9.2 83 LegendMM 15 15   100.71     LegendNANA
15:00 11.7 10.0 90 LegendMM 16 17   100.65     LegendNANA
16:00 11.3 9.8 90 LegendMM 17 18   100.58     LegendNANA
17:00 10.7 9.6 93 LegendMM 17 14   100.57     LegendNANA
18:00 10.1 9.4 95 LegendMM 19 8   100.54     LegendNANA
19:00 10.2 9.6 96 LegendMM 17 14   100.47     LegendNANA
20:00 10.2 9.6 96 LegendMM 14 5   100.40     LegendNANA
21:00 11.2 10.7 96 LegendMM 17 6   100.37     LegendNANA
22:00 11.6 11.0 96 LegendMM 17 4   100.32     LegendNANA
23:00 11.5 11.0 96 LegendMM 16 6   100.21     LegendNANA

Notes on Data Quality.

Legend

  • E = Estimated
  • M = Missing
  • NA = Not Available*
  • [empty] = Indicates an unobserved value
Date modified: